IW9CTJ-13 Weather Reports


Display with metric or nautical units.
time (UTC)temp
F
wind
direction
speed
MPH
gust
MPH
rain 1hr
in
rain 24hr
in
rain mn
in
humidity
%
barometer
mb
20260504050117 60 315 0.0 1.0 0.00 0.00 0.00 66 1019.8
20260504044548 59 283 0.0 0.0 0.00 0.00 0.00 68 1019.7
20260504043052 59 279 0.0 1.0 0.00 0.00 0.00 68 1019.6
20260504041547 59 281 1.0 8.0 0.00 0.00 0.00 68 1019.4
20260504040046 59 288 5.0 11.0 0.00 0.00 0.00 67 1019.4
20260504034551 59 271 5.0 12.0 0.00 0.00 0.00 66 1019.3
20260504033046 59 268 7.0 13.0 0.00 0.00 0.00 67 1019.4
20260504031602 59 257 2.0 12.0 0.00 0.00 0.00 68 1019.5
20260504030043 58 273 4.0 9.0 0.00 0.00 0.00 69 1019.6
20260504024543 58 256 6.0 14.0 0.00 0.00 0.00 71 1019.7
20260504023038 58 265 7.0 13.0 0.00 0.00 0.00 72 1019.9
20260504021533 58 287 0.0 0.0 0.00 0.00 0.00 73 1019.8
20260504020038 59 265 0.0 0.0 0.00 0.00 0.00 73 1019.8
20260504014533 59 272 0.0 0.0 0.00 0.00 0.00 73 1019.7
20260504013031 59 276 0.0 0.0 0.00 0.00 0.00 72 1019.6
20260504011529 59 281 0.0 0.0 0.00 0.00 0.00 72 1019.6
20260504010028 59 285 0.0 0.0 0.00 0.00 0.00 71 1019.7
20260504004529 59 290 0.0 0.0 0.00 0.00 0.00 71 1019.8
20260504003027 59 288 0.0 0.0 0.00 0.00 0.00 71 1019.8
20260504001525 59 290 0.0 0.0 0.00 0.00 0.00 72 1019.9
20260504000024 60 276 0.0 0.0 0.00 0.00 0.00 73 1020.0
20260503234526 60 330 0.0 0.0 0.00 0.00 0.00 74 1020.2
20260503233019 60 312 0.0 0.0 0.00 0.00 0.00 74 1020.4
20260503231520 60 289 0.0 0.0 0.00 0.00 0.00 74 1020.5
20260503230022 60 286 0.0 0.0 0.00 0.00 0.00 74 1020.6
20260503224515 61 319 0.0 0.0 0.00 0.00 0.00 74 1020.7
20260503223022 61 317 0.0 0.0 0.00 0.00 0.00 73 1020.7
20260503221514 61 315 0.0 0.0 0.00 0.00 0.00 73 1020.7
20260503220012 61 271 0.0 2.0 0.00 0.00 0.00 72 1020.7
20260503214510 62 277 0.0 2.0 0.00 0.00 0.00 72 1020.7
20260503213010 62 275 0.0 0.0 0.00 0.00 0.00 70 1020.5
20260503211516 62 275 0.0 0.0 0.00 0.00 0.00 69 1020.3
20260503210015 63 275 0.0 1.0 0.00 0.00 0.00 68 1020.3
20260503204506 63 295 0.0 9.0 0.00 0.00 0.00 66 1020.4
20260503203012 64 275 0.0 0.0 0.00 0.00 0.00 62 1020.4
20260503201509 64 296 0.0 0.0 0.00 0.00 0.00 61 1020.3
20260503200005 64 251 0.0 0.0 0.00 0.00 0.00 61 1020.2
20260503194506 64 248 0.0 0.0 0.00 0.00 0.00 61 1020.2
20260503193006 65 246 0.0 0.0 0.00 0.00 0.00 61 1020.1
20260503191502 65 256 0.0 0.0 0.00 0.00 0.00 61 1020.0
20260503190004 65 240 0.0 0.0 0.00 0.00 0.00 61 1019.9
20260503184502 65 269 0.0 0.0 0.00 0.00 0.00 60 1019.7
20260503183000 65 228 0.0 0.0 0.00 0.00 0.00 59 1019.5
20260503181606 65 202 0.0 0.0 0.00 0.00 0.00 59 1019.4
20260503180100 65 185 0.0 0.0 0.00 0.00 0.00 60 1019.3
20260503174618 65 181 0.0 0.0 0.00 0.00 0.00 59 1019.2
20260503173131 66 147 0.0 0.0 0.00 0.00 0.00 57 1019.2
20260503171558 66 126 0.0 0.0 0.00 0.00 0.00 56 1019.1
20260503081517 67 265 7.0 14.0 0.00 0.00 0.00 43 1021.0
20260503071509 65 271 6.0 13.0 0.00 0.00 0.00 40 1021.0